SCP
0 0 0 0 0 0 0 0 0 0 0 0 0 0 0 0 0 0 0 0 0 0 0 0 0 0 0 0 0 0 0 0 0 0 0 0 0 0 0 0 0 0 0
0 0 0 0 0 0 0 0 0 0 0 0 0 0 0 0 0 0 0 0 0 0 0 0 0 0 0 0 0 0 0 0 0 0 0 0 0 0 0 0 0 0 0
0 0 0 0 0 0 0 0 0 0 0 0 0 0 0 0 0 0 0 0 0 0 0 0 0 0 0 0 0 0 0 0 0 0 0 0 0 0 0 0 0 0 0
1 0 0 0 0 0 0 0 0 0 0 0 0 0 0 0 0 0 0 0 0 0 0 0 0 0 0 0 0 0 0 0 0 0 0 0 0 0 0 0 0 0 0
0 0 0 0 0 0 0 0 0 0 0 0 0 0 0 0 0 0 0 0 0 0 0 0 0 0 0 0 0 0 0 0 0 0 0 0 0 0 0 0 0 0 0
0 0 0 0 0 0 0 0 0 0 0 0 0 0 0 0 0 0 0 0 0 0 0 0 0 0 0 0 0 0 0 0 0 0 0 0 0 0 0 0 0 0 0
1 0 0 0 0 0 0 0 0 0 0 0 0 0 0 0 0 0 0 0 0 0 0 0 0 0 0 0 0 0 0 0 0 0 0 0 0 0 0 0 0 0 0
1 1 0 1 1 1 0 0 0 0 0 0 0 0 0 0 0 0 0 0 0 0 0 0 0 0 0 0 0 0 0 0 0 0 0 0 0 0 0 0 0 0 0
1 1 1 1 1 1 1 0 0 0 0 0 0 0 0 0 0 0 0 0 0 0 0 0 0 0 0 0 0 0 0 0 0 0 0 0 0 0 0 0 0 0 0
1 1 1 1 1 1 1 1 0 0 0 0 0 0 0 0 0 0 0 0 0 0 0 0 0 0 0 0 0 0 0 0 0 0 0 0 0 0 0 0 0 0 0
1 1 1 1 1 1 1 1 0 0 0 0 0 0 0 0 0 0 0 0 0 0 0 0 0 0 0 0 0 0 0 0 0 0 0 0 0 0 0 0 0 0 0
1 1 1 1 1 1 1 1 1 0 0 0 0 0 0 0 0 0 0 0 0 0 0 0 0 0 0 0 0 0 0 0 0 0 0 0 0 0 0 0 0 0 0
1 1 1 1 1 1 1 1 1 1 0 0 0 0 0 0 0 0 0 0 0 0 0 0 0 0 0 0 0 0 0 0 0 0 0 0 0 0 0 0 0 0 0
1 1 1 1 1 1 1 1 1 1 1 0 0 0 0 0 0 0 0 0 0 0 0 0 0 0 0 0 0 0 0 0 0 0 0 0 0 0 0 0 0 0 0
1 1 1 1 1 1 1 1 1 1 1 1 0 0 0 0 0 0 0 0 0 0 0 0 0 0 0 0 0 0 0 0 0 0 0 0 0 0 0 0 0 0 0
1 1 1 1 1 1 1 1 1 1 1 1 0 0 0 0 0 0 0 0 0 0 0 0 0 0 0 0 0 0 0 0 0 0 0 0 0 0 0 0 0 0 0
1 1 1 1 1 1 1 1 1 1 1 1 0 0 0 0 0 0 0 0 0 0 0 0 0 0 0 0 0 0 0 0 0 0 0 0 0 0 0 0 0 0 0
1 1 1 1 1 1 1 1 0 0 0 0 0 0 0 0 0 0 0 0 0 0 0 0 0 0 0 0 0 0 0 0 0 0 0 0 0 0 0 0 0 0 0
0 0 0 0 0 0 0 0 0 0 0 0 0 0 0 0 0 0 0 0 0 0 0 0 0 0 0 0 0 0 0 0 0 0 0 0 0 0 0 0 0 0 0
0 0 0 0 0 0 0 0 0 0 0 0 0 0 0 0 0 0 0 0 0 0 0 0 0 0 0 0 0 0 0 0 0 0 0 0 0 0 0 0 0 0 0
0 0 0 0 0 0 0 0 0 0 0 0 0 0 0 0 0 0 0 0 0 0 0 0 0 0 0 0 0 0 0 0 0 0 0 0 0 0 0 0 0 0 0
0 0 0 0 0 0 0 0 0 0 0 0 0 0 0 0 0 0 0 0 0 0 0 0 0 0 0 0 0 0 0 0 0 0 0 0 0 0 0 0 0 0 0
0 0 0 0 0 0 0 0 0 0 0 0 0 0 0 0 0 0 0 0 0 0 0 0 0 0 0 0 0 0 0 0 0 0 0 0 0 0 0 0 0 0 0
0 0 0 0 0 0 0 0 0 0 0 0 0 0 0 0 0 0 0 0 0 0 0 0 0 0 0 0 0 0 0 0 0 0 0 0 0 0 0 0 0 0 0
0 0 0 0 0 0 0 0 0 0 0 0 0 0 0 0 0 0 0 0 0 0 0 0 0 0 0 0 0 0 0 0 0 0 0 0 0 0 0 0 0 0 0
0 0 0 0 0 0 0 0 0 0 0 0 0 0 0 0 0 0 0 0 0 0 0 0 0 0 0 0 0 0 0 0 0 0 0 0 0 0 0 0 0 0 0
Wind_Speed
3 4 2 2 3 3 4 2 2 2 2 2 1 2 3 4 7 8 7 12 11 9 9 9 9 8 8 7 7 7 7 8 7 7 7 7 7 7 7 7 7 6 6
4 4 3 2 2 2 2 2 3 3 1 2 2 2 2 3 6 8 7 8 10 9 9 9 9 8 8 8 7 7 7 8 8 7 7 6 6 6 6 6 6 5 5
5 4 3 3 2 3 3 2 3 2 3 3 2 2 3 2 4 6 7 6 6 9 9 9 8 8 8 8 8 8 8 8 8 7 7 6 6 6 6 6 6 5 5
5 4 3 3 3 3 3 2 2 2 2 2 2 2 2 2 3 4 5 6 6 7 8 10 9 8 9 9 8 8 8 8 8 8 8 8 7 6 6 6 6 6 5
6 4 3 3 3 3 2 3 3 1 2 2 2 2 2 3 3 4 4 6 6 7 7 9 11 10 10 10 9 9 9 9 9 9 9 9 9 8 7 7 7 6 6
6 4 3 4 3 3 2 2 3 1 1 1 2 3 2 3 3 3 4 4 5 8 8 9 7 8 12 11 10 10 10 10 10 10 10 10 10 9 8 8 8 7 7
6 5 3 5 3 3 3 4 3 3 1 1 1 1 2 3 3 3 3 3 5 6 7 9 7 6 6 12 11 11 11 12 11 11 11 10 10 10 9 9 9 8 8
7 7 4 4 4 3 3 3 3 2 2 2 1 1 0 1 2 5 4 4 4 4 5 8 6 6 6 5 8 13 12 12 12 12 11 11 10 10 10 10 10 9 9
6 5 6 4 4 4 4 4 4 4 2 2 2 1 1 1 1 2 4 4 4 3 4 5 7 7 7 6 7 12 14 12 12 13 12 11 11 10 10 10 11 10 10
6 5 5 5 4 3 5 5 5 3 3 2 1 1 1 1 1 1 2 3 5 4 4 4 6 7 6 5 6 11 14 13 13 13 12 12 11 11 11 11 12 12 11
6 6 6 5 5 3 5 4 4 4 3 3 2 2 2 2 3 2 2 2 2 3 4 4 3 4 6 6 5 9 14 14 13 12 11 11 11 12 12 12 13 13 12
5 7 7 6 5 4 4 4 4 5 3 3 2 1 2 2 2 2 2 2 3 3 4 3 3 4 4 5 8 12 15 14 13 12 11 11 11 11 12 13 13 13 13
5 7 7 5 5 5 5 5 4 4 4 4 3 2 2 2 2 2 2 2 1 2 2 3 4 4 4 3 4 11 13 14 13 12 11 11 11 11 11 11 12 12 12
5 6 6 6 5 5 6 5 5 5 4 4 5 4 2 2 2 1 1 1 1 1 2 3 2 3 3 3 5 10 8 13 13 12 12 11 11 11 10 10 10 11 10
4 6 6 6 6 6 5 5 4 5 4 5 4 4 3 3 2 2 1 1 1 2 2 2 1 1 2 2 6 5 5 11 13 13 12 11 11 10 10 10 10 10 10
4 5 6 6 6 6 6 5 4 5 5 4 3 4 3 3 2 2 2 1 1 2 2 1 1 0 0 2 6 4 3 9 12 13 12 11 11 10 10 9 9 9 9
4 4 5 5 5 5 5 4 5 5 5 5 4 4 4 3 2 2 2 2 1 1 2 2 1 0 0 1 2 2 2 3 5 11 12 11 11 10 9 9 8 8 8
4 4 4 4 4 4 4 5 6 5 5 5 4 3 3 3 3 2 1 2 1 1 1 2 1 1 1 2 2 2 3 3 3 8 11 11 11 10 10 9 8 8 7
3 4 4 4 4 4 4 4 4 3 3 3 3 3 3 2 2 1 1 1 1 1 0 1 2 1 1 1 1 2 3 2 3 3 8 10 10 10 10 9 9 8 7
3 3 3 3 3 3 3 3 3 3 2 1 1 1 2 2 2 2 1 1 1 1 1 1 1 1 1 2 1 1 2 2 3 3 1 4 7 9 9 9 8 8 7
3 3 3 3 2 2 2 3 2 3 3 3 2 2 2 3 2 1 1 0 0 0 0 1 1 1 1 2 2 2 2 2 2 1 1 1 1 2 3 5 6 7 7
4 4 4 4 4 2 4 5 3 3 4 4 3 2 2 3 4 4 4 3 2 1 0 1 1 1 2 2 2 3 2 2 2 2 2 2 1 0 1 2 3 5 5
5 6 6 5 6 6 8 8 8 6 5 4 3 3 2 3 3 2 3 3 3 3 2 1 1 1 2 3 3 3 2 2 2 2 2 2 2 2 2 1 2 4 4
5 5 5 6 6 7 8 8 9 6 6 6 5 5 4 4 4 3 2 2 3 3 2 2 2 2 2 3 2 2 3 3 2 3 3 2 2 2 3 1 1 2 3
6 5 5 6 7 7 8 7 6 5 6 7 7 7 7 6 8 6 3 3 4 3 5 7 6 4 4 5 4 3 4 3 3 2 3 2 3 3 2 1 1 1 2
5 6 7 6 7 7 8 8 6 4 5 6 6 8 12 10 10 8 5 5 5 3 3 3 3 2 2 3 5 3 3 3 3 2 3 3 3 3 3 2 3 2 2
Wind_Direction
156 142 145 157 179 159 171 191 141 115 127 143 152 100 77 93 113 123 135 149 148 150 153 155 156 156 158 157 157 155 153 153 151 150 149 149 148 146 143 141 139 138 139
142 134 141 164 188 152 152 150 130 136 138 94 78 87 86 91 108 124 140 150 154 157 163 166 166 166 168 169 171 172 169 167 165 166 166 165 162 162 162 159 159 157 155
142 151 159 184 180 147 136 141 137 154 166 145 125 118 109 112 123 131 144 154 162 170 174 176 175 175 179 181 183 185 184 181 179 181 181 180 179 178 177 177 177 176 173
155 165 170 181 160 152 150 148 167 180 150 128 134 137 123 123 129 151 156 162 166 172 182 186 184 187 191 192 193 193 192 192 191 192 194 193 193 192 194 195 196 193 193
166 183 176 153 171 162 158 180 144 153 144 148 157 154 158 161 163 178 167 174 171 165 171 186 191 194 199 200 201 201 201 200 199 201 204 204 203 203 203 205 208 207 206
173 183 177 165 184 161 156 131 121 127 130 193 192 154 188 178 182 177 184 182 176 176 178 175 184 200 206 206 206 208 209 207 206 208 210 212 211 210 209 211 212 213 214
177 192 189 161 186 164 160 154 148 154 193 208 163 173 214 200 188 176 194 189 189 186 175 168 182 186 196 208 209 211 214 213 211 211 213 215 217 215 213 214 215 217 220
180 190 198 174 178 163 164 163 151 165 208 195 191 163 274 275 234 201 187 195 196 186 180 178 182 181 186 182 205 209 213 216 215 214 214 215 217 217 216 217 218 221 223
187 196 175 188 174 173 171 179 179 186 204 212 198 171 187 219 239 231 206 196 185 186 195 180 185 189 195 182 186 204 210 212 215 216 216 215 215 215 217 219 222 224 225
186 192 180 186 184 187 166 183 187 190 193 215 222 212 218 188 187 236 257 206 192 193 207 208 196 187 193 183 181 187 200 206 211 215 216 216 216 216 218 222 226 228 229
191 194 188 186 188 197 179 187 164 186 191 206 221 217 217 215 227 200 227 219 214 203 200 205 195 187 190 191 181 187 191 199 206 211 215 218 219 220 222 226 231 234 235
194 197 191 189 191 198 185 183 178 192 208 224 236 250 219 213 227 220 220 219 216 213 197 192 195 196 193 188 196 188 187 196 201 207 213 217 219 222 225 228 233 237 239
194 197 193 185 192 195 189 183 186 200 204 216 224 247 251 246 241 228 224 236 231 230 200 197 197 189 201 186 188 178 186 193 199 205 211 217 222 225 227 229 233 236 239
199 188 185 188 194 197 199 190 193 198 199 208 221 228 246 256 267 249 233 233 261 256 230 234 200 183 190 165 172 178 187 193 198 204 210 216 222 225 227 229 233 236 238
198 183 187 195 195 198 204 194 207 208 190 203 217 219 231 250 263 271 255 214 217 254 261 249 238 196 184 136 155 193 192 194 200 205 210 215 221 224 227 230 232 234 236
209 191 189 189 191 197 198 195 208 206 198 205 213 216 219 248 254 256 256 254 231 228 251 256 234 213 131 165 166 200 210 190 202 206 208 212 216 220 224 228 232 234 236
203 198 191 188 190 195 196 200 212 200 199 208 218 213 214 232 258 278 271 255 243 233 242 274 293 346 66 15 149 229 226 195 203 208 208 210 214 216 219 224 227 232 236
190 190 186 183 191 196 196 204 215 206 202 208 214 216 212 216 216 251 285 292 289 259 232 266 303 316 270 244 213 234 257 242 226 203 205 211 213 214 216 218 221 225 230
182 187 183 187 194 194 193 200 205 201 202 201 197 200 205 198 198 212 235 268 302 305 309 263 286 306 303 302 273 262 272 286 281 226 202 207 210 211 212 214 216 218 221
173 178 181 183 180 163 166 173 176 174 172 176 178 188 192 178 185 203 215 233 281 308 331 316 295 306 313 312 354 304 297 298 289 290 250 197 205 212 217 217 214 215 217
127 124 128 129 131 141 148 137 140 148 134 119 99 84 83 94 103 120 151 156 207 245 308 323 314 340 347 358 355 314 307 310 300 346 345 311 196 203 209 215 217 214 217
96 99 98 99 95 96 91 100 101 100 101 98 91 90 98 81 95 103 101 82 79 95 350 347 4 22 13 4 354 344 349 343 326 350 354 318 345 129 200 185 192 192 206
92 93 94 92 83 68 76 86 87 85 85 83 77 66 65 66 69 105 111 95 74 62 77 103 59 1 8 357 346 341 341 325 298 310 336 315 339 335 334 66 155 182 196
89 90 91 90 84 70 71 81 84 84 79 74 64 59 61 46 37 43 79 82 72 44 53 87 86 42 31 7 348 333 322 320 315 345 357 322 338 336 339 9 190 175 197
89 87 84 83 83 71 64 75 84 91 81 72 65 54 55 55 42 45 66 83 84 73 76 85 91 89 69 44 29 16 5 356 334 352 7 351 344 333 319 323 342 261 262
101 97 86 79 81 76 64 67 75 93 94 87 76 65 56 54 45 48 57 70 74 59 56 73 82 69 64 56 52 46 17 358 341 356 18 6 355 353 337 345 359 336 311